Latest:
 RWROR |
  [top]

000
ASUS46 KPQR 200210
RWROR

OREGON REGIONAL WEATHER ROUNDUP
NATIONAL WEATHER SERVICE PORTLAND OR
700 PM PDT SAT APR 19 2014

NOTE: "FAIR" INDICATES FEW OR NO CLOUDS BELOW 12,000 FEET WITH
NO SIGNIFICANT WEATHER AND/OR OBSTRUCTIONS TO VISIBILITY.

ORZ001>013-200300-
NORTHWEST OREGON


CITY           SKY/WX    TMP DP  RH WIND       PRES   REMARKS
ASTORIA        CLOUDY    52  45  77 SW16G22   30.11R
NEWPORT        CLOUDY    52  48  87 SW12      30.22R FOG
PORTLAND       PTCLDY    56  42  59 SW12G21   30.14R
VANCOUVER WA   MOCLDY    56  42  59 W9        30.13R
SCAPPOOSE      MOCLDY    55  43  63 SW5       30.13R
HILLSBORO      MOSUNNY   54  40  59 SW12      30.13R
AURORA         CLOUDY    53  45  74 SW8       30.16R
MCMINNVILLE    MOSUNNY   54  43  66 SW12      30.16R
SALEM          PTSUNNY   55  43  63 SW12      30.16R
CORVALLIS      CLOUDY    54  45  71 W7        30.19R
EUGENE         PTSUNNY   55  44  66 W7        30.19R
$$

ORZ021-028-200300-
SOUTHWEST OREGON


CITY           SKY/WX    TMP DP  RH WIND       PRES   REMARKS
NORTH BEND     PTSUNNY   55  50  82 W12       30.23R
BROOKINGS      CLEAR     53  50  90 VRB5      30.23S FOG
ROSEBURG       MOSUNNY   58  39  49 W5        30.20R
SEXTON SUMMIT  MOSUNNY   44  36  73 CALM      30.17R
MEDFORD        PTCLDY    60  35  39 NW14      30.16R
$$

ORZ009-041-200300-
COLUMBIA GORGE


CITY           SKY/WX    TMP DP  RH WIND       PRES   REMARKS
TROUTDALE      CLOUDY    57  41  55 SW16G24   30.13R
THE DALLES     MOCLDY    56  39  53 W25G36    30.06R
$$

ORZ029>031-042>050-061>064-200300-
EASTERN OREGON


CITY           SKY/WX    TMP DP  RH WIND       PRES   REMARKS
REDMOND        MOCLDY    50  32  50 NW17      30.10R
BEND           PTCLDY    50  30  46 SW15      30.11R
KLAMATH FALLS  PTCLDY    52  33  48 N9        30.12R
LAKEVIEW       MOCLDY    55  30  38 W13G20    30.09R
HERMISTON      MOCLDY    60  37  42 W24G32    29.99R
PENDLETON      CLOUDY    57  37  47 W12       30.00R
MEACHAM        CLOUDY    47  36  65 MISG      30.03R
LA GRANDE      CLOUDY    54  32  43 NW14      30.00R
BAKER CITY     CLOUDY    52  34  50 NW29G40   29.95R
BURNS          MOCLDY    56  32  40 W25G36    30.00R
ROME             N/A     69  19  15 SW17G29   29.91R
ONTARIO        PTCLDY    70  32  24 W3        29.81R
$$




000
ASUS46 KPQR 200110
RWROR

OREGON REGIONAL WEATHER ROUNDUP
NATIONAL WEATHER SERVICE PORTLAND OR
600 PM PDT SAT APR 19 2014

NOTE: "FAIR" INDICATES FEW OR NO CLOUDS BELOW 12,000 FEET WITH
NO SIGNIFICANT WEATHER AND/OR OBSTRUCTIONS TO VISIBILITY.

ORZ001>013-200200-
NORTHWEST OREGON


CITY           SKY/WX    TMP DP  RH WIND       PRES   REMARKS
ASTORIA        PTSUNNY   54  45  71 SW14G21   30.08R
NEWPORT        CLOUDY    54  50  87 SW15      30.20R HAZE
PORTLAND       PTSUNNY   58  40  51 SW15      30.11R
VANCOUVER WA   PTSUNNY   57  43  59 W7        30.11R
SCAPPOOSE      LGT RAIN  54  45  71 W6        30.10R
HILLSBORO      LGT RAIN  55  41  59 SW13G28   30.10R
AURORA         PTSUNNY   56  44  64 W15G23    30.14R
MCMINNVILLE    PTSUNNY   56  43  61 SW13      30.14R
SALEM          PTSUNNY   56  42  59 W18G24    30.14R
CORVALLIS      CLOUDY    55  43  62 W10G18    30.17R
EUGENE         PTSUNNY   57  45  64 W12       30.17R
$$

ORZ021-028-200200-
SOUTHWEST OREGON


CITY           SKY/WX    TMP DP  RH WIND       PRES   REMARKS
NORTH BEND     PTSUNNY   57  50  77 SW10      30.22R
BROOKINGS      PTCLDY    55  49  80 W7        30.23R HAZE
ROSEBURG       MOSUNNY   59  40  49 W8        30.18R
SEXTON SUMMIT  PTSUNNY   45  35  68 CALM      30.16R
MEDFORD        MOSUNNY   61  39  44 NW14      30.15R
$$

ORZ009-041-200200-
COLUMBIA GORGE


CITY           SKY/WX    TMP DP  RH WIND       PRES   REMARKS
TROUTDALE      MOSUNNY   58  42  55 W13G24    30.10R
THE DALLES     LGT RAIN  55  43  63 W31G39    30.04R
$$

ORZ029>031-042>050-061>064-200200-
EASTERN OREGON


CITY           SKY/WX    TMP DP  RH WIND       PRES   REMARKS
REDMOND        PTSUNNY   54  28  36 SW13G21   30.06R
BEND           MOCLDY    52  28  40 SW20      30.09R
KLAMATH FALLS  PTSUNNY   55  35  47 NW14G24   30.10R
LAKEVIEW       MOSUNNY   61  25  25 W16G23    30.05R
HERMISTON      CLOUDY    62  39  42 W20G25    29.97R
PENDLETON      CLOUDY    57  38  48 W10       29.99R
MEACHAM        CLOUDY    48  35  60 VRB5      30.02R
LA GRANDE      CLOUDY    57  32  38 NW23G33   29.97R
BAKER CITY     PTSUNNY   59  33  37 NW31G40   29.90R
BURNS          PTSUNNY   62  27  26 W23G35    29.96R
ROME             N/A     71  20  14 W29G36    29.88R
ONTARIO        SUNNY     78  23  13 NE5       29.80S
$$




000
ASUS46 KPQR 200010
RWROR

OREGON REGIONAL WEATHER ROUNDUP
NATIONAL WEATHER SERVICE PORTLAND OR
500 PM PDT SAT APR 19 2014

NOTE: "FAIR" INDICATES FEW OR NO CLOUDS BELOW 12,000 FEET WITH
NO SIGNIFICANT WEATHER AND/OR OBSTRUCTIONS TO VISIBILITY.

ORZ001>013-200100-
NORTHWEST OREGON


CITY           SKY/WX    TMP DP  RH WIND       PRES   REMARKS
ASTORIA        CLOUDY    53  47  79 SW12      30.06R
6HR MIN TEMP:  48; 6HR MAX TEMP:  56; 6HR PCP:  0.14;

NEWPORT        PTSUNNY   54  50  87 SW15G23   30.17R FOG
PORTLAND       PTSUNNY   59  44  57 SW16G28   30.08R
6HR MIN TEMP:  50; 6HR MAX TEMP:  59; 6HR PCP:  0.05;

VANCOUVER WA   PTSUNNY   58  42  55 W15G26    30.08R
6HR MIN TEMP:  50; 6HR MAX TEMP:  58; 6HR PCP:  0.05;

SCAPPOOSE      MOSUNNY   56  45  66 SW8G22    30.06R
6HR MIN TEMP:  49; 6HR MAX TEMP:  58; 6HR PCP:  0.11;

HILLSBORO      PTSUNNY   56  42  59 W14G21    30.07R
6HR MIN TEMP:  47; 6HR MAX TEMP:  60; 6HR PCP:  0.03;

AURORA         PTSUNNY   56  44  64 W13G21    30.10R
6HR MIN TEMP:  49; 6HR MAX TEMP:  58; 6HR PCP:  0.07;

MCMINNVILLE    PTSUNNY   58  45  62 SW15      30.10R
6HR MIN TEMP:  50; 6HR MAX TEMP:  60; 6HR PCP:  0.02;

SALEM          CLOUDY    57  43  59 SW14G21   30.11R
6HR MIN TEMP:  52; 6HR MAX TEMP:  61; 6HR PCP:  0.02;

CORVALLIS      PTSUNNY   57  45  62 W10G16    30.14R
EUGENE         PTSUNNY   58  47  66 W8        30.15R
6HR MIN TEMP:  52; 6HR MAX TEMP:  59; 6HR PCP:  0.01;

$$

ORZ021-028-200100-
SOUTHWEST OREGON


CITY           SKY/WX    TMP DP  RH WIND       PRES   REMARKS
NORTH BEND     MOSUNNY   59  48  67 SW13G18   30.19R
6HR MIN TEMP:  50; 6HR MAX TEMP:  59;

BROOKINGS      PTCLDY    56  50  80 VRB3      30.22R HAZE
ROSEBURG       PTSUNNY   59  41  51 W8        30.16R
6HR MIN TEMP:  55; 6HR MAX TEMP:  62; 6HR PCP:  0.01;

SEXTON SUMMIT  CLOUDY    47  37  68 CALM      30.14R
6HR MIN TEMP:  41; 6HR MAX TEMP:  50; 6HR PCP:  0.03;

MEDFORD        MOSUNNY   61  40  45 NW15      30.13R
6HR MIN TEMP:  58; 6HR MAX TEMP:  67;

$$

ORZ009-041-200100-
COLUMBIA GORGE


CITY           SKY/WX    TMP DP  RH WIND       PRES   REMARKS
TROUTDALE      CLOUDY    56  45  66 W7G22     30.07R
6HR MIN TEMP:  52; 6HR MAX TEMP:  59; 6HR PCP:  0.10;

THE DALLES     SUNNY     62  36  37 W30G40    29.98R
6HR MIN TEMP:  51; 6HR MAX TEMP:  66; 6HR PCP: TRACE;

$$

ORZ029>031-042>050-061>064-200100-
EASTERN OREGON


CITY           SKY/WX    TMP DP  RH WIND       PRES   REMARKS
REDMOND        MOSUNNY   54  31  41 NW14G24   30.04R
6HR MIN TEMP:  53; 6HR MAX TEMP:  65;

BEND           MOCLDY    54  32  43 S16       30.05R
KLAMATH FALLS  MOSUNNY   57  36  45 NW24G30   30.06R
6HR MIN TEMP:  57; 6HR MAX TEMP:  65;

LAKEVIEW       MOSUNNY   64  23  20 W17G29    30.02R
HERMISTON      CLOUDY    61  39  44 W15G26    29.95R
6HR MIN TEMP:  51; 6HR MAX TEMP:  69;

PENDLETON      CLOUDY    58  37  45 W26       29.96R
6HR MIN TEMP:  53; 6HR MAX TEMP:  66;

MEACHAM        CLOUDY    52  34  50 VRB6G18   29.98R
6HR MIN TEMP:  52; 6HR MAX TEMP:  65;

LA GRANDE      CLOUDY    61  30  31 NW24G30   29.87R
6HR MIN TEMP:  59; 6HR MAX TEMP:  70;

BAKER CITY     PTSUNNY   67  29  24 NW8       29.83S
6HR MIN TEMP:  60; 6HR MAX TEMP:  70;

BURNS          MOSUNNY   65  19  17 W24G38    29.93R
6HR MIN TEMP:  57; 6HR MAX TEMP:  72;

ROME             N/A     75  15  10 W28G36    29.86R
6HR MIN TEMP:  65; 6HR MAX TEMP:  77;

ONTARIO        SUNNY     78  23  13 E6        29.80F
6HR MIN TEMP:  59; 6HR MAX TEMP:  78;

$$




000
ASUS46 KPQR 192310
RWROR

OREGON REGIONAL WEATHER ROUNDUP
NATIONAL WEATHER SERVICE PORTLAND OR
400 PM PDT SAT APR 19 2014

NOTE: "FAIR" INDICATES FEW OR NO CLOUDS BELOW 12,000 FEET WITH
NO SIGNIFICANT WEATHER AND/OR OBSTRUCTIONS TO VISIBILITY.

ORZ001>013-200000-
NORTHWEST OREGON


CITY           SKY/WX    TMP DP  RH WIND       PRES   REMARKS
ASTORIA        LGT RAIN  53  47  79 SW16G23   30.01R
NEWPORT        CLOUDY    55  52  88 SW15G22   30.15R FOG
PORTLAND       CLOUDY    56  47  71 W22G29    30.06R
VANCOUVER WA   LGT RAIN  54  45  71 SW9G24    30.05R
SCAPPOOSE      CLOUDY    57  48  72 W12G22    30.02R
HILLSBORO      PTSUNNY   55  45  68 W13G20    30.04R
AURORA         LGT RAIN  55  48  77 SW12G22   30.08R
MCMINNVILLE    PTSUNNY   57  47  69 SW18G30   30.07R
SALEM          MOSUNNY   56  45  66 W15G24    30.09R
CORVALLIS      PTSUNNY   55  48  76 SW15G21   30.11R
EUGENE         PTSUNNY   57  45  64 W10       30.13R
$$

ORZ021-028-200000-
SOUTHWEST OREGON


CITY           SKY/WX    TMP DP  RH WIND       PRES   REMARKS
NORTH BEND     PTSUNNY   57  50  77 SW13G22   30.18R
BROOKINGS      MOCLDY    54  51  89 VRB5      30.21S FOG
ROSEBURG       PTSUNNY   59  42  53 W13G18    30.15R
SEXTON SUMMIT  PTSUNNY   46  34  62 VRB6      30.13R
MEDFORD        CLOUDY    61  43  51 NW15G29   30.11R
$$

ORZ009-041-200000-
COLUMBIA GORGE


CITY           SKY/WX    TMP DP  RH WIND       PRES   REMARKS
TROUTDALE      LGT RAIN  56  48  74 W21G30    30.04R
THE DALLES     MOSUNNY   63  40  42 W31G44    29.95R
$$

ORZ029>031-042>050-061>064-200000-
EASTERN OREGON


CITY           SKY/WX    TMP DP  RH WIND       PRES   REMARKS
REDMOND        PTSUNNY   55  32  41 W22       30.00R
BEND           MOCLDY    57  32  38 SW15G23   30.01R
KLAMATH FALLS  PTSUNNY   60  33  36 W18G36    30.03R
LAKEVIEW       MOSUNNY   66  25  20 SW20      30.00R
HERMISTON      PTSUNNY   64  39  39 W20G28    29.91R
PENDLETON      PTSUNNY   64  36  35 NW17      29.90R
JOHN DAY       PTCLDY    70  28  21 W18G25    29.89R
MEACHAM        PTSUNNY   57  32  38 VRB5      29.91R
LA GRANDE      MOSUNNY   66  30  26 W15       29.84R
BAKER CITY     MOSUNNY   67  30  25 E15       29.83F
BURNS          SUNNY     69  22  16 SW25G31   29.90R
ROME             N/A     77  11   8 S13G21    29.84F
ONTARIO        SUNNY     77  23  13 SE9       29.81F
$$




000
ASUS46 KPQR 192210
RWROR

OREGON REGIONAL WEATHER ROUNDUP
NATIONAL WEATHER SERVICE PORTLAND OR
300 PM PDT SAT APR 19 2014

NOTE: "FAIR" INDICATES FEW OR NO CLOUDS BELOW 12,000 FEET WITH
NO SIGNIFICANT WEATHER AND/OR OBSTRUCTIONS TO VISIBILITY.

ORZ001>013-192300-
NORTHWEST OREGON


CITY           SKY/WX    TMP DP  RH WIND       PRES   REMARKS
ASTORIA        LGT RAIN  51  45  79 SW10G22   29.98R
NEWPORT        CLOUDY    55  50  82 SW17G24   30.12R HAZE
PORTLAND       LGT RAIN  55  50  83 S15       30.01R
VANCOUVER WA   PTSUNNY   56  48  74 S9G20     30.00R
SCAPPOOSE      CLOUDY    55  49  80 SW9       29.99R
HILLSBORO      PTSUNNY   58  40  51 SW17G38   29.99R
AURORA         CLOUDY    57  50  77 SW16G28   30.03R
MCMINNVILLE    LGT RAIN  54  48  80 W24       30.05R
SALEM          PTSUNNY   60  43  53 SW23G31   30.03R
CORVALLIS      PTSUNNY   55  45  67 SW15      30.09R
EUGENE         PTSUNNY   56  47  71 SW16      30.11R
$$

ORZ021-028-192300-
SOUTHWEST OREGON


CITY           SKY/WX    TMP DP  RH WIND       PRES   REMARKS
NORTH BEND     CLOUDY    59  52  77 SW15G24   30.15R
BROOKINGS      LGT RAIN  50  49  96 VRB5      30.20R FOG
ROSEBURG       PTSUNNY   61  41  47 SW16G24   30.12R
SEXTON SUMMIT  CLOUDY    43  37  79 VRB5      30.11R
MEDFORD        PTSUNNY   63  44  50 NW12G25   30.08R
$$

ORZ009-041-192300-
COLUMBIA GORGE


CITY           SKY/WX    TMP DP  RH WIND       PRES   REMARKS
TROUTDALE      PTSUNNY   58  48  69 S15       30.00R HAZE
THE DALLES     PTSUNNY   65  37  35 W26G33    29.94R
$$

ORZ029>031-042>050-061>064-192300-
EASTERN OREGON


CITY           SKY/WX    TMP DP  RH WIND       PRES   REMARKS
REDMOND        CLOUDY    54  33  45 NW16G25   29.98R
BEND           CLOUDY    55  32  41 SW18G28   29.99R
KLAMATH FALLS  SUNNY     63  25  23 W17G30    30.01R
LAKEVIEW       PTSUNNY   66  28  24 SW20G40   29.98S
HERMISTON      SUNNY     67  36  31 NW3       29.86S
PENDLETON      MOSUNNY   65  33  30 NW7       29.86S
JOHN DAY       PTCLDY    70  28  21 W23G32    29.85S
MEACHAM        CLOUDY    56  28  34 VRB5      29.90R
LA GRANDE      MOSUNNY   70  30  23 SW15      29.82S
BAKER CITY     SUNNY     68  30  24 E15G21    29.84F
BURNS          MOSUNNY   71  23  16 W23G29    29.88S
ROME             N/A     77  10   7 SW17G29   29.87F
ONTARIO        SUNNY     75  25  15 S9        29.84F
$$




000
ASUS46 KPQR 192110
RWROR

OREGON REGIONAL WEATHER ROUNDUP
NATIONAL WEATHER SERVICE PORTLAND OR
200 PM PDT SAT APR 19 2014

NOTE: "FAIR" INDICATES FEW OR NO CLOUDS BELOW 12,000 FEET WITH
NO SIGNIFICANT WEATHER AND/OR OBSTRUCTIONS TO VISIBILITY.

ORZ001>013-192200-
NORTHWEST OREGON


CITY           SKY/WX    TMP DP  RH WIND       PRES   REMARKS
ASTORIA        CLOUDY    56  48  74 SW21G28   29.93R
NEWPORT        CLOUDY    55  52  88 S17G24    30.08R HAZE
PORTLAND       LGT RAIN  54  48  80 S8        30.00R
VANCOUVER WA   CLOUDY    55  49  80 S7        29.99R
SCAPPOOSE      LGT RAIN  55  48  77 VRB5      29.96R
HILLSBORO      CLOUDY    56  46  69 S13       29.96R
AURORA         CLOUDY    55  51  86 S16G26    30.01R
MCMINNVILLE    PTSUNNY   59  48  67 SW22G28   29.99R
SALEM          PTSUNNY   58  50  75 S17G25    30.01R
CORVALLIS      PTSUNNY   57  46  67 SW12G21   30.06R
EUGENE         LGT RAIN  56  48  74 SW18      30.08R
$$

ORZ021-028-192200-
SOUTHWEST OREGON


CITY           SKY/WX    TMP DP  RH WIND       PRES   REMARKS
NORTH BEND     PTSUNNY   57  52  82 SW18G24   30.12R
BROOKINGS      CLOUDY    49  48  96 VRB6      30.18R FOG
ROSEBURG       CLOUDY    58  45  62 SW7       30.10R
SEXTON SUMMIT  CLOUDY    42  40  92 VRB3      30.08R
MEDFORD        PTSUNNY   62  46  55 NW17G25   30.05R
$$

ORZ009-041-192200-
COLUMBIA GORGE


CITY           SKY/WX    TMP DP  RH WIND       PRES   REMARKS
TROUTDALE      LGT RAIN  55  46  71 S13G23    29.99R
THE DALLES     CLOUDY    60  42  51 NW24G33   29.91R
$$

ORZ029>031-042>050-061>064-192200-
EASTERN OREGON


CITY           SKY/WX    TMP DP  RH WIND       PRES   REMARKS
REDMOND        CLOUDY    59  28  30 W16G28    29.92R
BEND           PTCLDY    59  28  31 W12       29.92R
KLAMATH FALLS  SUNNY     63  18  17 W23G35    30.00R
LAKEVIEW       MOSUNNY   66  28  24 SW16G32   29.98S
HERMISTON      MOSUNNY   63  36  36 VRB5      29.86R
PENDLETON      CLOUDY    58  32  37 W3        29.86R
JOHN DAY       PTCLDY    72  25  17 SW23      29.85S
MEACHAM        CLOUDY    58  31  35 VRB6      29.89R
LA GRANDE      MOSUNNY   70  30  23 S16G28    29.81S
BAKER CITY     MOSUNNY   66  30  26 E15G25    29.85F
BURNS          SUNNY     70  21  15 SW25G33   29.88S
ROME             N/A     75   9   8 S15G28    29.88F
ONTARIO        SUNNY     71  31  22 SE5       29.88F
$$




000
ASUS46 KPQR 192010
RWROR

OREGON REGIONAL WEATHER ROUNDUP
NATIONAL WEATHER SERVICE PORTLAND OR
100 PM PDT SAT APR 19 2014

NOTE: "FAIR" INDICATES FEW OR NO CLOUDS BELOW 12,000 FEET WITH
NO SIGNIFICANT WEATHER AND/OR OBSTRUCTIONS TO VISIBILITY.

ORZ001>013-192100-
NORTHWEST OREGON


CITY           SKY/WX    TMP DP  RH WIND       PRES   REMARKS
ASTORIA        LGT RAIN  55  49  80 SW14G24   29.89R
NEWPORT          N/A     55  52  88 S21G30    30.04R
PORTLAND       CLOUDY    54  46  74 S16       29.96R
VANCOUVER WA   CLOUDY    53  44  71 SE9       29.96R
SCAPPOOSE      CLOUDY    52  45  77 S6        29.94R
HILLSBORO      CLOUDY    52  45  77 S13       29.94R
AURORA         LGT RAIN  53  49  86 S14G26    29.98R
MCMINNVILLE      N/A     57  50  77 MISG      29.96R
SALEM          CLOUDY    56  47  71 S22       29.98R
CORVALLIS      PTSUNNY   57  48  72 SW13G22   30.03R
EUGENE         PTSUNNY   56  48  74 SW15      30.05R
$$

ORZ021-028-192100-
SOUTHWEST OREGON


CITY           SKY/WX    TMP DP  RH WIND       PRES   REMARKS
NORTH BEND     CLOUDY    55  52  88 SW17G23   30.09R
BROOKINGS      CLOUDY    47  46  96 VRB6      30.15R FOG
ROSEBURG       CLOUDY    56  46  69 SW7       30.08R
SEXTON SUMMIT  CLOUDY    42  39  89 SW8G17    30.06R
MEDFORD        PTSUNNY   66  35  31 NW17G24   30.01R
$$

ORZ009-041-192100-
COLUMBIA GORGE


CITY           SKY/WX    TMP DP  RH WIND       PRES   REMARKS
TROUTDALE      PTSUNNY   54  46  74 S14       29.96R
THE DALLES     CLOUDY    59  38  45 NW14G20   29.89R
$$

ORZ029>031-042>050-061>064-192100-
EASTERN OREGON


CITY           SKY/WX    TMP DP  RH WIND       PRES   REMARKS
REDMOND        MOSUNNY   63  21  20 W20G31    29.89R
BEND           CLEAR     63  21  20 SW17G31   29.91R
KLAMATH FALLS  SUNNY     63  20  19 W25G32    29.98R
LAKEVIEW       SUNNY     64  28  25 S22G30    29.97S
HERMISTON      PTSUNNY   59  35  40 VRB3      29.85F
PENDLETON      PTSUNNY   58  36  43 W20       29.85R
JOHN DAY       CLEAR     70  21  16 SW17G28   29.85F
MEACHAM        PTSUNNY   63  27  25 VRB6      29.85S
LA GRANDE      MOSUNNY   68  30  24 S23G30    29.82F
BAKER CITY     PTSUNNY   66  24  20 SE14      29.87F
BURNS          SUNNY     67  19  16 S8        29.88F
ROME             N/A     73   1   6 SW17G31   29.90F
ONTARIO        SUNNY     66  31  27 VRB6      29.91F
$$




000
ASUS46 KPQR 191910
RWROR

OREGON REGIONAL WEATHER ROUNDUP
NATIONAL WEATHER SERVICE PORTLAND OR
1200 PM PDT SAT APR 19 2014

NOTE: "FAIR" INDICATES FEW OR NO CLOUDS BELOW 12,000 FEET WITH
NO SIGNIFICANT WEATHER AND/OR OBSTRUCTIONS TO VISIBILITY.

ORZ001>013-192000-
NORTHWEST OREGON


CITY           SKY/WX    TMP DP  RH WIND       PRES   REMARKS
ASTORIA        CLOUDY    53  49  86 SW15G24   29.85R
NEWPORT        CLOUDY    52  50  93 S23G29    30.01R FOG
PORTLAND       CLOUDY    51  45  79 S14       29.93R
VANCOUVER WA   CLOUDY    51  44  77 VRB6      29.93R
SCAPPOOSE      CLOUDY    50  43  77 SE8       29.91R
HILLSBORO      CLOUDY    50  43  77 S9        29.91R
AURORA         CLOUDY    51  47  86 S15       29.95R
MCMINNVILLE    CLOUDY    53  51  93 S17       29.93R
SALEM          PTSUNNY   53  44  71 S15G33    29.95R
CORVALLIS      PTSUNNY   54  46  76 SW14      30.00R
EUGENE         CLOUDY    54  47  77 S21       30.01R
$$

ORZ021-028-192000-
SOUTHWEST OREGON


CITY           SKY/WX    TMP DP  RH WIND       PRES   REMARKS
NORTH BEND     CLOUDY    54  50  87 S13G22    30.06R
BROOKINGS      LGT RAIN  46  45  97 SE8       30.13R VSB 3/4
ROSEBURG       LGT RAIN  55  45  68 VRB5      30.04R
SEXTON SUMMIT  CLOUDY    44  32  62 VRB3      30.03R
MEDFORD        CLOUDY    65  31  28 N5        29.99R
$$

ORZ009-041-192000-
COLUMBIA GORGE


CITY           SKY/WX    TMP DP  RH WIND       PRES   REMARKS
TROUTDALE      LGT RAIN  52  46  80 S12G18    29.93R
THE DALLES     SUNNY     58  36  43 VRB3      29.86F
$$

ORZ029>031-042>050-061>064-192000-
EASTERN OREGON


CITY           SKY/WX    TMP DP  RH WIND       PRES   REMARKS
REDMOND        PTSUNNY   63  21  20 SW10G26   29.88R
BEND           PTCLDY    61  16  17 SW21G26   29.91R
KLAMATH FALLS  SUNNY     61  23  23 MISG      29.96R
LAKEVIEW       SUNNY     64  27  24 S24G35    29.98S
HERMISTON      MOSUNNY   56  36  47 NW7       29.86S
PENDLETON      MOSUNNY   55  36  48 NW13      29.84S
MEACHAM        CLOUDY    62  28  27 VRB5      29.85F
LA GRANDE      MOSUNNY   63  30  29 S16G25    29.84F
BAKER CITY     MOSUNNY   61  26  26 SE14G21   29.89F
BURNS          SUNNY     63  24  22 VRB5      29.92F
ROME             N/A     70  10  10 S14G23    29.91F
ONTARIO        MOSUNNY   62  30  29 SE6G16    29.94F
$$




000
ASUS46 KPQR 191810
RWROR

OREGON REGIONAL WEATHER ROUNDUP
NATIONAL WEATHER SERVICE PORTLAND OR
1100 AM PDT SAT APR 19 2014

NOTE: "FAIR" INDICATES FEW OR NO CLOUDS BELOW 12,000 FEET WITH
NO SIGNIFICANT WEATHER AND/OR OBSTRUCTIONS TO VISIBILITY.

ORZ001>013-191900-
NORTHWEST OREGON


CITY           SKY/WX    TMP DP  RH WIND       PRES   REMARKS
ASTORIA        LGT RAIN  48  44  86 SE6       29.82S FOG
6HR MIN TEMP:  45; 6HR MAX TEMP:  52; 6HR PCP:  0.21;

NEWPORT        CLOUDY    50  46  87 S24G33    29.96R
PORTLAND       LGT RAIN  51  43  74 S15G21    29.90R
6HR MIN TEMP:  43; 6HR MAX TEMP:  52; 6HR PCP:  0.02;

VANCOUVER WA   LGT RAIN  50  41  71 S9        29.90R
6HR MIN TEMP:  40; 6HR MAX TEMP:  52; 6HR PCP:  0.02;

SCAPPOOSE      CLOUDY    49  42  77 SE8       29.88
6HR MIN TEMP:  37; 6HR MAX TEMP:  49; 6HR PCP:  0.04;

HILLSBORO      LGT RAIN  47  43  86 CALM      29.88R FOG
6HR MIN TEMP:  37; 6HR MAX TEMP:  48; 6HR PCP:  0.03;

AURORA         CLOUDY    51  42  71 S13G21    29.91R
6HR MIN TEMP:  38; 6HR MAX TEMP:  52; 6HR PCP:  0.02;

MCMINNVILLE    LGT RAIN  50  44  80 S13       29.90R
6HR MIN TEMP:  37; 6HR MAX TEMP:  50; 6HR PCP:  0.04;

SALEM          LGT RAIN  53  45  74 S15       29.91R
6HR MIN TEMP:  42; 6HR MAX TEMP:  55; 6HR PCP:  0.02;

CORVALLIS      CLOUDY    52  45  76 SW12      29.95R
EUGENE         CLOUDY    52  43  71 SW12      29.97R
6HR MIN TEMP:  36; 6HR MAX TEMP:  52; 6HR PCP:  0.01;

$$

ORZ021-028-191900-
SOUTHWEST OREGON


CITY           SKY/WX    TMP DP  RH WIND       PRES   REMARKS
NORTH BEND     CLOUDY    50  48  93 S13       30.02R
6HR MIN TEMP:  45; 6HR MAX TEMP:  50; 6HR PCP:  0.01;

BROOKINGS      LGT RAIN  46  45  93 SE9       30.10R VSB 3/4
ROSEBURG       LGT RAIN  56  43  61 W8        29.99R
6HR MIN TEMP:  42; 6HR MAX TEMP:  58; 6HR PCP: TRACE;

SEXTON SUMMIT  CLOUDY    45  27  49 S9G20     29.99R
6HR MIN TEMP:  39; 6HR MAX TEMP:  48;

MEDFORD        MOSUNNY   58  41  53 E7        29.98R
6HR MIN TEMP:  40; 6HR MAX TEMP:  59;

$$

ORZ009-041-191900-
COLUMBIA GORGE


CITY           SKY/WX    TMP DP  RH WIND       PRES   REMARKS
TROUTDALE      LGT RAIN  53  39  59 MISG      29.89R
6HR MIN TEMP:  42; 6HR MAX TEMP:  53; 6HR PCP: TRACE;

THE DALLES     MOSUNNY   51  38  60 CALM      29.88F
6HR MIN TEMP:  35; 6HR MAX TEMP:  51;

$$

ORZ029>031-042>050-061>064-191900-
EASTERN OREGON


CITY           SKY/WX    TMP DP  RH WIND       PRES   REMARKS
REDMOND        PTSUNNY   62  24  23 NW12      29.87R
6HR MIN TEMP:  27; 6HR MAX TEMP:  62;

BEND           PTCLDY    59  18  20 SW9       29.89R
KLAMATH FALLS  SUNNY     58  25  28 VRB3      29.95S
6HR MIN TEMP:  24; 6HR MAX TEMP:  58;

LAKEVIEW       MOSUNNY   63  25  23 S20G26    29.99S
HERMISTON      MOSUNNY   51  34  52 CALM      29.86S
6HR MIN TEMP:  29; 6HR MAX TEMP:  52;

PENDLETON      MOSUNNY   53  35  50 NW12      29.84R
6HR MIN TEMP:  34; 6HR MAX TEMP:  55;

JOHN DAY       PTCLDY    64  25  22 S12G20    29.87F
MEACHAM        MOSUNNY   59  27  29 CALM      29.86S
6HR MIN TEMP:  27; 6HR MAX TEMP:  59;

LA GRANDE      MOSUNNY   59  28  31 S15       29.87F
6HR MIN TEMP:  28; 6HR MAX TEMP:  59;

BAKER CITY     MOSUNNY   61  27  27 E17G26    29.90F
6HR MIN TEMP:  22; 6HR MAX TEMP:  61;

BURNS          MOSUNNY   56  25  30 SE5       29.93F
6HR MIN TEMP:  25; 6HR MAX TEMP:  57;

ROME             N/A     65  19  17 VRB6      29.94F
6HR MIN TEMP:  30; 6HR MAX TEMP:  65;

ONTARIO        SUNNY     59  30  33 VRB3      29.97F
6HR MIN TEMP:  32; 6HR MAX TEMP:  59;

$$




000
ASUS46 KPQR 191710
RWROR

OREGON REGIONAL WEATHER ROUNDUP
NATIONAL WEATHER SERVICE PORTLAND OR
1000 AM PDT SAT APR 19 2014

NOTE: "FAIR" INDICATES FEW OR NO CLOUDS BELOW 12,000 FEET WITH
NO SIGNIFICANT WEATHER AND/OR OBSTRUCTIONS TO VISIBILITY.

ORZ001>013-191800-
NORTHWEST OREGON


CITY           SKY/WX    TMP DP  RH WIND       PRES   REMARKS
ASTORIA        LGT RAIN  47  43  86 E5        29.82R FOG
NEWPORT        LGT RAIN  45  45 100 S18G31    29.93R
PORTLAND       CLOUDY    50  41  71 E13       29.86S
VANCOUVER WA   CLOUDY    50  40  68 E7        29.85S
SCAPPOOSE      CLOUDY    49  43  80 S3        29.84S
HILLSBORO      CLOUDY    47  42  83 W6        29.85R
AURORA         CLOUDY    51  45  79 S7        29.86F
MCMINNVILLE    LGT RAIN  48  44  86 W6        29.87R
SALEM          LGT RAIN  52  43  71 S15       29.87R
CORVALLIS      CLOUDY    50  45  81 SW8       29.90R
EUGENE         LGT RAIN  52  46  80 SW5       29.91R
$$

ORZ021-028-191800-
SOUTHWEST OREGON


CITY           SKY/WX    TMP DP  RH WIND       PRES   REMARKS
NORTH BEND     CLOUDY    48  46  93 S7        29.97R
BROOKINGS      LGT RAIN  48  45  87 VRB6      30.05R VSB 1
ROSEBURG       MOSUNNY   56  42  59 SE6       29.93F
SEXTON SUMMIT  MOSUNNY   47  16  29 S13G18    29.95R
MEDFORD        SUNNY     53  39  59 VRB3      29.97R
$$

ORZ009-041-191800-
COLUMBIA GORGE


CITY           SKY/WX    TMP DP  RH WIND       PRES   REMARKS
TROUTDALE      CLOUDY    52  40  63 VRB6      29.85F
THE DALLES     MOSUNNY   48  37  65 CALM      29.89F
$$

ORZ029>031-042>050-061>064-191800-
EASTERN OREGON


CITY           SKY/WX    TMP DP  RH WIND       PRES   REMARKS
REDMOND        MOSUNNY   60  20  21 S17G23    29.84F
BEND           SUNNY     55  18  22 SW16G23   29.87S
KLAMATH FALLS  SUNNY     53  30  41 E3        29.95S
LAKEVIEW       SUNNY     55  25  30 SE14      29.99S
HERMISTON      MOSUNNY   47  35  63 NW3       29.86F
PENDLETON      PTSUNNY   50  35  56 NW10      29.83S
JOHN DAY       SUNNY     57  28  33 SE6       29.89S
MEACHAM        PTSUNNY   54  28  36 CALM      29.86F
LA GRANDE      PTSUNNY   52  28  40 SE14      29.89F
BAKER CITY     MOSUNNY   57  26  30 SE12      29.91F
BURNS          SUNNY     54  23  30 CALM      29.95R
ROME             N/A     58  20  22 S6        29.95F
ONTARIO        SUNNY     53  27  36 VRB3      29.98F
$$




000
ASUS46 KPQR 191610
RWROR

OREGON REGIONAL WEATHER ROUNDUP
NATIONAL WEATHER SERVICE PORTLAND OR
900 AM PDT SAT APR 19 2014

NOTE: "FAIR" INDICATES FEW OR NO CLOUDS BELOW 12,000 FEET WITH
NO SIGNIFICANT WEATHER AND/OR OBSTRUCTIONS TO VISIBILITY.

ORZ001>013-191700-
NORTHWEST OREGON


CITY           SKY/WX    TMP DP  RH WIND       PRES   REMARKS
ASTORIA        LGT RAIN  49  42  77 SE13      29.80R
NEWPORT        LGT RAIN  46  43  87 S23G30    29.89R
PORTLAND       CLOUDY    48  39  71 SE7       29.86R
VANCOUVER WA   LGT RAIN  48  39  71 SE8       29.85S
SCAPPOOSE      CLOUDY    45  42  89 CALM      29.84F
HILLSBORO      CLOUDY    43  41  93 CALM      29.84F
AURORA         CLOUDY    46  42  86 CALM      29.87R
MCMINNVILLE    CLOUDY    45  43  93 CALM      29.86F
SALEM          CLOUDY    51  41  68 VRB3      29.85S
CORVALLIS      CLOUDY    48  45  87 S14       29.88S
EUGENE         CLOUDY    49  45  86 S5        29.90R
$$

ORZ021-028-191700-
SOUTHWEST OREGON


CITY           SKY/WX    TMP DP  RH WIND       PRES   REMARKS
NORTH BEND     CLOUDY    48  45  87 S8        29.93R
BROOKINGS      CLOUDY    48  43  83 VRB5      30.02R HAZE
ROSEBURG       PTSUNNY   48  43  82 SE5       29.94R
SEXTON SUMMIT  PTSUNNY   44  17  33 S13G22    29.93R
MEDFORD        SUNNY     48  38  68 CALM      29.96R
$$

ORZ009-041-191700-
COLUMBIA GORGE


CITY           SKY/WX    TMP DP  RH WIND       PRES   REMARKS
TROUTDALE      CLOUDY    50  40  68 VRB6      29.86S
THE DALLES     MOSUNNY   44  37  76 CALM      29.90F
$$

ORZ029>031-042>050-061>064-191700-
EASTERN OREGON


CITY           SKY/WX    TMP DP  RH WIND       PRES   REMARKS
REDMOND        MOSUNNY   52  25  35 S15G22    29.85F
BEND           MOSUNNY   46  27  46 S6        29.87F
KLAMATH FALLS  SUNNY     46  28  49 SE6       29.95S
LAKEVIEW       SUNNY     45  30  57 S8        29.99S
HERMISTON      PTSUNNY   43  36  76 VRB5      29.87S
PENDLETON      PTSUNNY   48  34  58 NW8       29.83F
JOHN DAY       SUNNY     50  27  40 E8        29.89F
MEACHAM        MOSUNNY   50  27  40 CALM      29.87S
LA GRANDE      SUNNY     43  28  56 NW6       29.90F
BAKER CITY     SUNNY     46  28  49 VRB3      29.93F
BURNS          SUNNY     49  23  36 E6        29.94F
ROME             N/A     52  21  29 S5        29.96S
ONTARIO        SUNNY     49  25  39 CALM      29.99F
$$




    US Dept of Commerce
    National Oceanic and Atmospheric Administration
    National Weather Service
    1325 East West Highway
    Silver Spring, MD 20910
    Page Author: NWS Internet Services Team
Disclaimer
Information Quality
Credits
Glossary
Privacy Policy
Freedom of Information Act (FOIA)
About Us
Career Opportunities